TimeEDT,TemperatureF,Dew PointF,Humidity,Sea Level PressureIn,VisibilityMPH,Wind Direction,Wind SpeedMPH,Gust SpeedMPH,PrecipitationIn,Events,Conditions,WindDirDegrees,DateUTC
12:53 AM,69.1,62.1,78,29.86,10.0,South,4.6,-,N/A,,Clear,170,2013-06-12 04:53:00
1:53 AM,66.9,61.0,81,29.86,10.0,SW,4.6,-,N/A,,Clear,220,2013-06-12 05:53:00
2:53 AM,66.9,61.0,81,29.87,10.0,South,4.6,-,N/A,,Scattered Clouds,190,2013-06-12 06:53:00
3:53 AM,66.9,62.1,84,29.86,10.0,South,3.5,-,N/A,,Partly Cloudy,190,2013-06-12 07:53:00
4:53 AM,66.9,62.1,84,29.86,10.0,South,3.5,-,0.00,,Scattered Clouds,170,2013-06-12 08:53:00
5:53 AM,64.9,62.1,90,29.86,8.0,South,5.8,-,N/A,,Partly Cloudy,170,2013-06-12 09:53:00
6:48 AM,68.0,62.6,83,29.88,9.0,SSE,5.8,-,N/A,,Partly Cloudy,150,2013-06-12 10:48:00
6:53 AM,68.0,63.0,84,29.86,9.0,SSE,5.8,-,N/A,,Partly Cloudy,160,2013-06-12 10:53:00
7:11 AM,69.8,64.4,83,29.88,9.0,SSE,3.5,-,N/A,,Scattered Clouds,160,2013-06-12 11:11:00
7:53 AM,71.1,64.9,81,29.87,10.0,ESE,4.6,-,N/A,,Partly Cloudy,120,2013-06-12 11:53:00
8:53 AM,78.1,64.0,62,29.87,10.0,West,5.8,-,N/A,,Clear,270,2013-06-12 12:53:00
9:53 AM,80.1,64.9,60,29.87,10.0,West,9.2,18.4,N/A,,Clear,270,2013-06-12 13:53:00
10:53 AM,80.1,64.9,60,29.87,10.0,NW,6.9,-,N/A,,Mostly Cloudy,310,2013-06-12 14:53:00
11:53 AM,84.0,64.9,53,29.88,10.0,NW,8.1,-,N/A,,Partly Cloudy,320,2013-06-12 15:53:00
12:53 PM,84.9,63.0,48,29.87,10.0,NW,8.1,-,N/A,,Clear,310,2013-06-12 16:53:00
1:53 PM,86.0,63.0,46,29.86,10.0,Variable,4.6,-,N/A,,Clear,0,2013-06-12 17:53:00
2:53 PM,88.0,62.1,42,29.84,10.0,WNW,9.2,23.0,N/A,,Partly Cloudy,300,2013-06-12 18:53:00
3:53 PM,84.9,62.1,46,29.84,10.0,Variable,6.9,-,N/A,,Scattered Clouds,0,2013-06-12 19:53:00
4:53 PM,88.0,63.0,43,29.80,10.0,West,5.8,-,N/A,,Scattered Clouds,280,2013-06-12 20:53:00
5:53 PM,84.9,64.0,49,29.80,10.0,West,9.2,-,N/A,,Clear,260,2013-06-12 21:53:00
6:53 PM,84.9,64.0,49,29.82,10.0,NW,5.8,-,N/A,,Clear,320,2013-06-12 22:53:00
7:53 PM,82.9,63.0,51,29.83,10.0,NW,4.6,-,N/A,,Clear,320,2013-06-12 23:53:00
8:53 PM,75.0,66.9,76,29.82,10.0,Calm,Calm,-,N/A,,Clear,0,2013-06-13 00:53:00
9:53 PM,75.0,64.9,71,29.84,10.0,Calm,Calm,-,N/A,,Clear,0,2013-06-13 01:53:00
10:53 PM,72.0,66.0,81,29.83,10.0,Calm,Calm,-,N/A,,Clear,0,2013-06-13 02:53:00
11:53 PM,72.0,66.0,81,29.80,10.0,Calm,Calm,-,N/A,,Clear,0,2013-06-13 03:53:00